Location: Courçay
(47.2523°N, 0.8761°E)
Time: 06:52:33
(UTC+00:00)

USA 215 - Pass Details

Date: 18 November 2025
Orbit: 1101 x 1106 km, 123.0° (Epoch: 02 December)

Event Time Altitude Azimuth Distance (km) Brightness Sun altitude
Rises 17:45:58 0° 136° (SE) 3,911 5.8 -14.8°
Reaches altitude 10° 17:48:28 10° 139° (SE) 2,956 5.2 -15.2°
Maximum altitude 17:54:57 66° 221° (SW) 1,201 3.6 -16.3°
Drops below altitude 10° 18:01:29 10° 303° (WNW) 2,972 6.2 -17.4°
Sets 18:04:01 0° 307° (NW) 3,933 6.8 -17.8°
